Вернуться в каталог

STARLINK-33567

АктивенСвязьVLEO
NORAD 62773·PAYLOAD·🇺🇸 United States

Запущен Jan 21, 2025 с Vandenberg Space Force Base

Loading…

Ближайшие Пролёты (ближайшие 24 часа)

TLE

СвежийSource: CelesTrak SupGP

Эпоха: Sep 14, 2026, 22:50 UTC

1 62773C 25015R   26257.95187500 -.00014224  00000+0 -42074-3 0  2576
2 62773  53.1581 159.7141 0000533  89.7849 114.7551 15.34361741    14

Отслеживайте STARLINK-33567 в реальном времени с AllMySat

Download on the App Store